Location: Coche
(10.4506°N, 66.9257°W)
Time: 04:44:46
(UTC+00:00)

YAOGAN 1 - Pass Details

Date: 05 July 2022
Orbit: 617 x 619 km, 97.9° (Epoch: 14 August)

Event Time Altitude Azimuth Distance (km) Brightness Sun altitude
Exits shadow 00:15:55 - 191° (S) 2,786 5.7 -19.0°
Reaches altitude 10° 00:18:08 10° 203° (SSW) 1,978 5.1 -19.5°
Maximum altitude 00:21:43 26° 260° (W) 1,220 4.6 -20.3°
Drops below altitude 10° 00:25:19 10° 317° (NW) 1,978 6.2 -21.0°
Sets 00:27:47 0° 330° (NNW) 2,883 7.0 -21.6°
